CW2157 Weather Reports


time (UTC)temp
F
wind
direction
speed
knots
gust
knots
rain 1hr
in
rain 24hr
in
rain mn
in
humidity
%
barometer
mb
20260905041705 76 272 1.7 6.1 0.00 0.32 0.00 88 1009.8
20260905041204 77 286 1.7 2.6 0.00 0.32 0.00 88 1009.8
20260905040704 77 302 0.9 2.6 0.00 0.32 0.00 88 1009.9
20260905040205 77 235 0.9 2.6 0.00 0.32 0.00 88 1009.9
20260905035705 77 308 1.7 2.6 0.00 0.32 0.32 88 1010.0
20260905035205 77 274 0.9 6.1 0.00 0.32 0.32 88 1010.0
20260905034705 77 276 0.9 4.3 0.00 0.32 0.32 88 1010.0
20260905033705 77 230 1.7 6.1 0.00 0.32 0.32 87 1010.0
20260905033205 77 253 0.9 2.6 0.00 0.32 0.32 87 1010.0
20260905032205 77 238 1.7 2.6 0.00 0.32 0.32 87 1010.1
20260905031705 77 296 0.9 6.1 0.00 0.32 0.32 87 1010.0
20260905031204 77 282 0.0 2.6 0.00 0.32 0.32 87 1010.2
20260905030705 77 257 0.9 2.6 0.00 0.32 0.32 87 1010.2
20260905030205 77 300 0.9 5.2 0.00 0.32 0.32 87 1010.4
20260905025705 78 258 1.7 4.3 0.00 0.32 0.32 87 1010.3
20260905024704 78 232 2.6 6.1 0.00 0.32 0.32 87 1010.4
20260905023705 78 269 1.7 7.0 0.00 0.32 0.32 88 1010.4
20260905023204 78 261 2.6 5.2 0.00 0.32 0.32 88 1010.4
20260905022704 78 236 0.9 6.1 0.00 0.32 0.32 88 1010.4
20260905022204 78 224 0.9 6.1 0.00 0.32 0.32 88 1010.3
20260905021705 78 274 0.9 5.2 0.00 0.32 0.32 88 1010.4
20260905020205 78 306 1.7 2.6 0.00 0.32 0.32 90 1010.2
20260905015704 78 256 0.0 2.6 0.00 0.32 0.32 90 1010.2
20260905015205 78 259 0.9 4.3 0.00 0.32 0.32 90 1010.1
20260905014705 78 295 1.7 2.6 0.00 0.32 0.32 90 1010.0
20260905013705 78 238 2.6 6.1 0.00 0.32 0.32 90 1010.0
20260905013205 78 247 1.7 6.1 0.00 0.32 0.32 90 1010.0
20260905012705 78 234 2.6 6.1 0.00 0.32 0.32 90 1010.0
20260905012205 78 281 1.7 5.2 0.00 0.32 0.32 90 1009.9
20260905011704 78 247 3.5 5.2 0.00 0.32 0.32 90 1009.8
20260905005704 78 192 0.0 1.7 0.00 0.32 0.32 89 1009.9
20260905005205 78 178 0.0 0.0 0.00 0.32 0.32 89 1009.7
20260905004705 78 178 0.9 0.9 0.00 0.32 0.32 88 1009.7
20260905004204 78 178 0.9 2.6 0.00 0.32 0.32 88 1009.7
20260905003704 78 178 0.9 1.7 0.00 0.32 0.32 88 1009.5
20260905003205 79 178 0.9 1.7 0.00 0.32 0.32 88 1009.6
20260905002704 79 178 0.0 0.9 0.00 0.32 0.32 87 1009.6
20260905002205 79 178 0.0 1.7 0.00 0.32 0.32 87 1009.8
20260905001205 79 178 0.0 0.0 0.00 0.32 0.32 87 1009.7
20260905000704 79 178 0.0 0.0 0.00 0.32 0.32 87 1009.6
20260905000204 79 178 0.0 0.0 0.00 0.32 0.32 87 1009.5
20260904235705 79 178 0.0 0.0 0.00 0.32 0.32 86 1009.3
20260904235204 79 178 0.0 0.0 0.00 0.32 0.32 84 1009.3
20260904234704 80 178 0.0 0.0 0.00 0.32 0.32 84 1009.2
20260904233704 80 178 0.0 0.0 0.00 0.32 0.32 84 1009.1
20260904232705 80 178 0.0 0.0 0.00 0.32 0.32 84 1009.0
20260904232205 80 178 0.0 0.0 0.00 0.32 0.32 84 1009.2
20260904231705 81 178 0.0 0.0 0.00 0.32 0.32 84 1009.2
20260904231204 81 178 0.9 0.9 0.00 0.32 0.32 83 1009.4
20260904230704 81 178 0.0 0.9 0.00 0.32 0.32 83 1009.4
20260904230205 81 178 0.0 0.0 0.00 0.32 0.32 83 1009.5
20260904225705 81 178 0.0 1.7 0.00 0.32 0.32 83 1009.4
20260904225204 82 178 0.9 1.7 0.00 0.32 0.32 83 1009.4
20260904224704 82 178 0.9 1.7 0.00 0.32 0.32 83 1009.4
20260904224205 82 178 0.9 2.6 0.00 0.32 0.32 83 1009.5
20260904223705 82 178 0.9 2.6 0.00 0.32 0.32 82 1009.5
20260904223204 82 178 0.0 0.9 0.00 0.32 0.32 81 1009.6
20260904222704 82 178 0.9 1.7 0.00 0.32 0.32 81 1009.7
20260904221204 83 178 0.9 2.6 0.00 0.32 0.32 80 1010.2
20260904220704 83 202 1.7 2.6 0.00 0.32 0.32 79 1010.4
20260904215705 83 193 1.7 2.6 0.00 0.32 0.32 76 1010.4
20260904215205 83 176 1.7 2.6 0.00 0.32 0.32 75 1010.5
20260904214204 84 254 0.0 0.0 0.00 0.32 0.32 75 1010.6
20260904213205 85 143 0.0 0.9 0.00 0.32 0.32 73 1010.3
20260904212704 85 143 1.7 2.6 0.00 0.32 0.32 74 1010.1
20260904212204 86 167 0.9 2.6 0.00 0.32 0.32 72 1010.3
20260904211205 87 357 0.0 0.9 0.00 0.32 0.32 69 1010.5
20260904210704 87 354 0.9 2.6 0.00 0.32 0.32 69 1010.6
20260904210204 88 60 1.7 2.6 0.00 0.32 0.32 67 1010.6
20260904205704 88 0 0.9 2.6 0.00 0.32 0.32 70 1010.7
20260904205205 88 123 0.0 1.7 0.00 0.32 0.32 71 1010.7
20260904204704 89 123 0.9 1.7 0.00 0.32 0.32 69 1010.6
20260904203704 90 165 0.0 1.7 0.00 0.32 0.32 68 1010.5
20260904203205 90 163 2.6 4.3 0.00 0.32 0.32 69 1010.2
20260904202205 90 220 1.7 6.1 0.00 0.32 0.32 63 1010.4
20260904201705 91 205 4.3 4.3 0.00 0.32 0.32 65 1010.5
20260904200704 90 218 1.7 2.6 0.00 0.32 0.32 65 1010.7
20260904200204 90 202 2.6 2.6 0.00 0.32 0.32 61 1010.7
20260904194704 90 193 1.7 2.6 0.00 0.32 0.32 66 1010.5
20260904194204 90 150 1.7 4.3 0.00 0.32 0.32 69 1010.5
20260904193205 90 219 0.9 2.6 0.00 0.32 0.32 66 1010.7
20260904192705 90 199 1.7 2.6 0.00 0.32 0.32 67 1010.6
20260904192205 89 180 1.7 2.6 0.00 0.32 0.32 66 1010.6
20260904191704 89 186 1.7 4.3 0.00 0.32 0.32 67 1010.7
20260904191205 89 158 1.7 2.6 0.00 0.32 0.32 66 1010.8
20260904190705 89 181 2.6 2.6 0.00 0.32 0.32 63 1010.7
20260904190204 89 198 1.7 4.3 0.00 0.32 0.32 66 1010.8
20260904185705 89 232 2.6 4.3 0.00 0.32 0.32 67 1010.8
20260904185205 89 203 3.5 6.1 0.00 0.32 0.32 64 1010.9
20260904184704 89 228 0.9 7.0 0.00 0.32 0.32 64 1011.0
20260904184204 89 253 1.7 6.1 0.00 0.32 0.32 62 1011.1
20260904183704 89 291 2.6 6.1 0.00 0.32 0.32 65 1011.1
20260904183204 89 234 2.6 5.2 0.00 0.32 0.32 63 1011.2
20260904182704 89 223 0.9 2.6 0.00 0.32 0.32 68 1011.2
20260904182204 89 249 1.7 2.6 0.00 0.32 0.32 67 1011.2
20260904181704 88 221 1.7 6.1 0.00 0.32 0.32 67 1011.3
20260904181204 88 247 1.7 7.0 0.00 0.32 0.32 67 1011.4
20260904180204 88 235 0.9 2.6 0.00 0.32 0.32 67 1011.4
20260904175705 88 267 1.7 7.0 0.00 0.32 0.32 66 1011.4
20260904175205 87 350 1.7 4.3 0.00 0.32 0.32 67 1011.5
20260904174704 87 267 1.7 7.8 0.00 0.32 0.32 68 1011.5
20260904174204 87 356 2.6 5.2 0.00 0.32 0.32 66 1011.6
20260904173204 87 334 1.7 4.3 0.00 0.32 0.32 68 1011.6
20260904172704 87 343 1.7 7.0 0.00 0.32 0.32 67 1011.6
20260904171704 87 265 1.7 2.6 0.00 0.32 0.32 67 1011.6
20260904170704 86 267 2.6 7.0 0.00 0.32 0.32 69 1011.7
20260904170204 86 278 1.7 6.1 0.00 0.32 0.32 69 1011.8
20260904165704 86 227 2.6 4.3 0.00 0.32 0.32 68 1011.9
20260904165205 86 352 1.7 2.6 0.00 0.32 0.32 70 1012.0
20260904164704 85 223 1.7 5.2 0.00 0.32 0.32 70 1012.0
20260904164205 85 296 3.5 7.0 0.00 0.32 0.32 69 1012.0
20260904163704 85 345 1.7 7.0 0.00 0.32 0.32 69 1012.0
20260904162704 85 2 4.3 7.0 0.00 0.32 0.32 67 1012.1
20260904162204 85 10 2.6 6.1 0.00 0.32 0.32 67 1012.1
20260904161204 85 283 4.3 7.8 0.00 0.32 0.32 71 1012.2
20260904160704 85 25 2.6 7.0 0.00 0.32 0.32 70 1012.2
20260904160205 85 39 2.6 7.8 0.00 0.32 0.32 71 1012.3
20260904155205 85 350 4.3 8.7 0.00 0.32 0.32 67 1012.3
20260904154704 85 318 5.2 10.4 0.00 0.32 0.32 70 1012.3
20260904154204 84 356 2.6 5.2 0.00 0.32 0.32 70 1012.3
20260904153205 84 355 2.6 8.7 0.00 0.32 0.32 72 1012.2
20260904152704 84 15 1.7 7.8 0.00 0.32 0.32 71 1012.2
20260904152204 84 351 6.1 10.4 0.00 0.32 0.32 68 1012.3
20260904150704 84 0 2.6 7.0 0.00 0.32 0.32 72 1012.3
20260904145704 84 347 1.7 7.0 0.00 0.32 0.32 76 1012.4
20260904145204 83 298 1.7 4.3 0.00 0.32 0.32 77 1012.6
20260904144704 83 337 1.7 2.6 0.00 0.32 0.32 77 1012.7
20260904143204 82 350 2.6 6.1 0.00 0.32 0.32 77 1012.4
20260904142704 82 6 1.7 5.2 0.00 0.32 0.32 77 1012.4
20260904142205 82 355 1.7 5.2 0.00 0.32 0.32 78 1012.5
20260904141704 82 333 3.5 7.0 0.00 0.32 0.32 76 1012.5
20260904141204 82 336 5.2 10.4 0.00 0.32 0.32 76 1012.5
20260904140703 82 318 2.6 7.8 0.00 0.32 0.32 79 1012.3
20260904135704 81 318 1.7 5.2 0.00 0.32 0.32 82 1012.4
20260904134704 81 243 2.6 7.0 0.00 0.32 0.32 83 1012.4
20260904133204 80 314 0.9 2.6 0.00 0.32 0.32 86 1012.2
20260904132703 79 226 2.6 7.0 0.00 0.32 0.32 85 1012.2
20260904131704 78 235 2.6 4.3 0.00 0.32 0.32 87 1012.3
20260904131204 78 338 1.7 6.1 0.00 0.32 0.32 89 1012.1
20260904130704 78 282 1.7 5.2 0.00 0.32 0.32 90 1012.0
20260904125704 77 229 2.6 6.1 0.00 0.32 0.32 90 1012.3
20260904125204 77 255 1.7 6.1 0.00 0.32 0.32 91 1012.5
20260904124705 76 193 1.7 7.0 0.00 0.32 0.32 92 1012.5
20260904124204 76 286 1.7 6.1 0.00 0.32 0.32 93 1012.4
20260904123704 76 286 2.6 4.3 0.00 0.32 0.32 94 1012.4
20260904123204 75 304 1.7 5.2 0.00 0.32 0.32 94 1012.4
20260904122704 75 184 2.6 6.1 0.00 0.32 0.32 94 1012.4
20260904122204 75 351 0.9 7.0 0.00 0.32 0.32 94 1012.4
20260904121704 75 211 1.7 5.2 0.00 0.32 0.32 95 1012.5
20260904121204 74 294 1.7 5.2 0.00 0.32 0.32 95 1012.3
20260904120704 74 298 2.6 7.0 0.00 0.32 0.32 95 1012.4
20260904120204 74 224 1.7 2.6 0.00 0.32 0.32 94 1012.4
20260904115705 74 230 1.7 5.2 0.00 0.32 0.32 94 1012.3
20260904114704 73 260 0.9 2.6 0.00 0.32 0.32 94 1012.3
20260904114204 73 321 0.9 2.6 0.00 0.32 0.32 94 1012.2
20260904113704 73 237 1.7 4.3 0.00 0.32 0.32 94 1012.2
20260904113204 73 234 2.6 6.1 0.00 0.32 0.32 94 1012.3
20260904112704 73 271 1.7 4.3 0.00 0.32 0.32 94 1012.4
20260904112204 73 224 1.7 2.6 0.00 0.32 0.32 94 1012.6
20260904111704 73 237 0.0 1.7 0.00 0.32 0.32 94 1012.6
20260904110704 73 320 0.9 4.3 0.00 0.32 0.32 94 1012.2
20260904110204 73 243 0.9 2.6 0.00 0.32 0.32 94 1012.0
20260904105704 73 298 0.9 2.6 0.00 0.32 0.32 94 1012.1
20260904105204 73 290 0.9 2.6 0.00 0.32 0.32 94 1012.2
20260904104704 73 233 0.9 1.7 0.00 0.32 0.32 94 1012.0
20260904103704 74 323 0.0 2.6 0.00 0.32 0.32 94 1012.2
20260904103203 74 281 0.9 2.6 0.00 0.32 0.32 94 1012.1
20260904102204 73 210 0.9 1.7 0.00 0.32 0.32 94 1011.9
20260904101704 73 314 0.9 1.7 0.00 0.32 0.32 94 1011.7
20260904101204 73 314 0.0 1.7 0.00 0.32 0.32 94 1011.7
20260904100704 73 314 0.0 1.7 0.00 0.32 0.32 94 1011.7
20260904100204 73 298 0.0 1.7 0.00 0.32 0.32 94 1011.4
20260904095704 73 304 0.0 0.0 0.00 0.32 0.32 94 1011.4
20260904095205 73 291 0.0 0.0 0.00 0.32 0.32 94 1011.4
20260904094706 73 331 0.0 0.0 0.00 0.32 0.32 94 1011.3
20260904094205 74 234 0.0 0.0 0.00 0.32 0.32 94 1011.4
20260904093206 74 333 0.9 2.6 0.00 0.32 0.32 94 1011.3
20260904092705 74 327 0.9 1.7 0.00 0.32 0.32 94 1011.2
20260904092205 74 321 0.9 1.7 0.00 0.32 0.32 94 1011.1
20260904091705 74 294 0.0 2.6 0.00 0.32 0.32 94 1011.1
20260904091206 74 254 1.7 2.6 0.00 0.32 0.32 94 1011.2
20260904090705 74 316 0.0 2.6 0.00 0.32 0.32 94 1011.3
20260904090205 74 319 0.9 1.7 0.00 0.32 0.32 94 1011.3
20260904085705 74 314 0.0 1.7 0.00 0.32 0.32 94 1011.3
20260904085206 74 286 0.9 2.6 0.00 0.32 0.32 94 1011.3
20260904083706 74 294 0.9 1.7 0.00 0.32 0.32 94 1011.5
20260904083205 74 312 0.9 2.6 0.00 0.32 0.32 94 1011.5
20260904082706 74 261 2.6 7.0 0.00 0.32 0.32 94 1011.7
20260904082205 74 236 6.1 10.4 0.00 0.32 0.32 94 1011.6
20260904081705 74 225 7.0 7.8 0.00 0.32 0.32 94 1011.7
20260904081205 74 228 7.0 8.7 0.00 0.32 0.32 94 1011.6
20260904080706 74 225 5.2 7.0 0.00 0.32 0.32 94 1011.6
20260904080205 74 229 5.2 7.0 0.00 0.32 0.32 94 1011.7
20260904075705 74 232 4.3 6.1 0.00 0.32 0.32 94 1011.8
20260904075206 74 276 0.9 1.7 0.00 0.32 0.32 94 1011.8
20260904074705 74 309 0.9 1.7 0.00 0.32 0.32 94 1011.6
20260904074206 74 265 0.9 1.7 0.00 0.32 0.32 94 1011.6
20260904073706 74 269 1.7 2.6 0.00 0.32 0.32 94 1011.6
20260904072706 74 212 2.6 4.3 0.00 0.32 0.32 94 1011.6
20260904072206 74 200 2.6 4.3 0.01 0.32 0.32 94 1011.7
20260904071705 74 248 1.7 5.2 0.01 0.32 0.32 94 1011.8
20260904071206 74 242 2.6 5.2 0.01 0.32 0.32 94 1011.8
20260904070706 74 230 4.3 6.1 0.01 0.32 0.32 93 1011.7
20260904070206 74 241 2.6 7.0 0.01 0.32 0.32 93 1011.8
20260904065705 74 234 5.2 6.1 0.01 0.32 0.32 93 1011.9
20260904063705 74 215 7.0 8.7 0.04 0.32 0.32 93 1011.9
20260904063205 74 226 5.2 8.7 0.04 0.32 0.32 93 1011.7
20260904062205 74 205 6.1 10.4 0.04 0.31 0.31 93 1011.7
20260904060706 74 186 5.2 8.7 0.06 0.31 0.31 92 1011.4
20260904060206 74 189 2.6 6.1 0.07 0.31 0.31 92 1011.0
20260904055705 74 190 4.3 6.1 0.09 0.31 0.31 92 1010.9
20260904055205 74 170 4.3 5.2 0.11 0.30 0.30 92 1011.3
20260904054705 74 193 1.7 4.3 0.13 0.29 0.29 92 1011.5
20260904054205 74 186 4.3 7.8 0.19 0.28 0.28 92 1011.5
20260904053706 74 130 4.3 7.8 0.28 0.28 0.28 92 1011.3
20260904053205 74 121 4.3 7.0 0.28 0.28 0.28 92 1011.7
20260904052705 74 111 4.3 6.1 0.28 0.28 0.28 93 1012.0
20260904052205 74 126 4.3 5.2 0.27 0.27 0.27 92 1012.4
20260904051706 74 175 0.9 2.6 0.26 0.26 0.26 90 1012.9
20260904051206 74 266 0.0 0.9 0.26 0.26 0.26 90 1013.5
20260904050705 74 298 2.6 5.2 0.25 0.25 0.25 90 1013.8
20260904050205 74 288 4.3 10.4 0.24 0.24 0.24 90 1013.9
20260904045705 74 241 2.6 10.4 0.22 0.22 0.22 89 1014.1
20260904045205 75 227 7.8 17.4 0.19 0.19 0.19 88 1014.2
20260904044705 76 230 10.4 22.6 0.16 0.16 0.16 87 1014.4
20260904044206 77 207 11.3 20.0 0.09 0.09 0.09 85 1014.3
20260904043706 79 229 13.9 30.4 0.00 0.00 0.00 83 1014.0
20260904043206 80 254 5.2 17.4 0.00 0.00 0.00 92 1013.6
20260904042706 80 259 7.0 13.0 0.00 0.00 0.00 92 1012.4
20260904042205 80 234 8.7 13.0 0.00 0.00 0.00 92 1011.8